EW8415 Weather Reports


time (UTC)temp
F
wind
direction
speed
knots
gust
knots
rain 1hr
in
rain 24hr
in
rain mn
in
humidity
%
barometer
mb
20260510044532 67 126 0.0 0.0 0.00 0.00 0.00 83 1013.6
20260510043032 68 126 0.0 0.0 0.00 0.00 0.00 83 1013.6
20260510041530 68 126 0.0 0.0 0.00 0.00 0.00 82 1013.5
20260510040031 69 126 0.0 0.0 0.00 0.00 0.00 81 1013.4
20260510034529 70 126 0.0 0.0 0.00 0.00 0.00 81 1013.4
20260510033029 71 126 0.0 0.9 0.00 0.00 0.00 82 1013.4
20260510031526 71 121 0.0 0.9 0.00 0.00 0.00 80 1013.1
20260510030027 71 121 0.0 1.7 0.00 0.00 0.00 80 1012.9
20260510024527 71 121 0.0 0.9 0.00 0.00 0.00 80 1012.7
20260510023027 71 121 0.0 0.0 0.00 0.00 0.00 79 1012.5
20260510021529 72 121 0.0 0.9 0.00 0.00 0.00 78 1012.3
20260510020024 72 69 0.0 0.0 0.00 0.00 0.00 78 1012.2
20260510014523 74 69 0.0 0.0 0.00 0.00 0.00 75 1012.0
20260510013023 75 69 0.0 0.0 0.00 0.00 0.00 73 1011.9
20260510011522 76 69 0.0 0.0 0.00 0.00 0.00 71 1011.7
20260510010022 77 69 0.0 0.9 0.00 0.00 0.00 69 1011.4
20260510004522 77 69 0.0 1.7 0.00 0.00 0.00 68 1011.3
20260510003021 78 67 0.0 2.6 0.00 0.00 0.00 68 1011.1
20260510001521 79 103 0.0 2.6 0.00 0.00 0.00 66 1010.9
20260510000021 79 98 0.0 2.6 0.00 0.00 0.00 66 1010.8
20260509234535 80 110 1.7 4.3 0.00 0.00 0.00 66 1010.6
20260509233019 80 76 0.9 4.3 0.00 0.00 0.00 64 1010.6
20260509231520 80 102 0.9 5.2 0.00 0.00 0.00 65 1010.5
20260509230019 81 88 0.9 5.2 0.00 0.00 0.00 63 1010.5
20260509224529 81 111 0.9 6.1 0.00 0.00 0.00 64 1010.4
20260509223017 81 78 0.9 4.3 0.00 0.00 0.00 62 1010.2
20260509221517 82 56 1.7 6.1 0.00 0.00 0.00 63 1010.1
20260509220019 82 123 3.5 7.0 0.00 0.00 0.00 59 1010.2
20260509214516 83 42 2.6 3.5 0.00 0.00 0.00 56 1010.1
20260509213014 83 235 0.9 3.5 0.00 0.00 0.00 59 1010.1
20260509211512 83 103 1.7 5.2 0.00 0.00 0.00 56 1010.2
20260509210010 82 223 0.0 3.5 0.00 0.00 0.00 56 1010.4
20260509204507 81 118 1.7 5.2 0.00 0.00 0.00 59 1010.5
20260509203010 80 120 0.9 4.3 0.00 0.00 0.00 63 1010.6
20260509201505 80 87 1.7 6.1 0.00 0.00 0.00 61 1010.9
20260509200006 80 127 0.9 3.5 0.00 0.00 0.00 60 1011.2
20260509194505 81 54 1.7 4.3 0.00 0.00 0.00 59 1011.3
20260509193007 81 31 1.7 7.0 0.00 0.00 0.00 59 1011.4
20260509191502 82 132 0.9 5.2 0.00 0.00 0.00 60 1011.5
20260509190100 81 130 1.7 7.0 0.00 0.00 0.00 60 1011.5
20260509190001 81 61 0.9 7.0 0.00 0.00 0.00 60 1011.5
20260509184601 81 154 0.9 3.5 0.00 0.00 0.00 60 1011.6
20260509183055 80 106 1.7 3.5 0.00 0.00 0.00 63 1011.7
20260509181607 80 291 2.6 6.1 0.00 0.00 0.00 62 1011.8
20260509180111 79 253 0.0 4.3 0.00 0.00 0.00 66 1012.0
20260509174546 78 282 1.7 5.2 0.00 0.00 0.00 64 1012.0
20260509173049 78 343 2.6 5.2 0.00 0.00 0.00 65 1012.2
20260509171550 77 315 0.9 6.1 0.00 0.00 0.00 66 1012.4
20260509170048 77 54 3.5 5.2 0.00 0.00 0.00 68 1012.4
20260509164535 76 27 1.7 7.0 0.00 0.00 0.00 71 1012.3
20260509163036 76 77 2.6 5.2 0.00 0.00 0.00 71 1012.2
20260509161531 75 219 0.9 7.8 0.00 0.00 0.00 73 1012.1
20260509160030 75 74 1.7 5.2 0.00 0.00 0.00 73 1012.2
20260509154525 74 47 0.9 5.2 0.00 0.00 0.00 73 1012.1
20260509153025 73 307 0.0 4.3 0.00 0.00 0.00 76 1012.1
20260509151519 72 341 0.0 3.5 0.00 0.00 0.00 80 1012.2
20260509150014 71 20 0.0 3.5 0.00 0.00 0.00 80 1012.3
20260509144515 69 84 0.0 1.7 0.00 0.00 0.00 81 1012.3
20260509143011 68 36 0.0 2.6 0.00 0.00 0.00 82 1012.4
20260509141507 67 186 0.0 1.7 0.00 0.00 0.00 83 1012.6
20260509140100 66 169 0.0 0.9 0.00 0.00 0.00 85 1012.9
20260509134556 65 173 0.0 1.7 0.00 0.00 0.00 85 1012.9
20260509133104 63 175 0.0 1.7 0.00 0.00 0.00 86 1013.0
20260509131547 62 179 0.0 1.7 0.00 0.00 0.00 86 1012.9
20260509130048 61 146 0.0 0.9 0.00 0.00 0.00 85 1012.8
20260509124547 60 146 0.0 1.7 0.00 0.00 0.00 85 1012.7
20260509123041 59 98 0.0 0.0 0.00 0.00 0.00 84 1012.6
20260509121547 57 98 0.0 0.0 0.00 0.00 0.00 83 1012.5
20260509120039 56 98 0.0 0.0 0.00 0.00 0.00 84 1012.3
20260509114538 55 98 0.0 0.0 0.00 0.00 0.00 85 1012.2
20260509113039 55 98 0.0 0.0 0.00 0.00 0.00 85 1011.9
20260509111538 55 98 0.0 0.0 0.00 0.00 0.00 85 1011.7
20260509110037 55 104 0.0 0.0 0.00 0.00 0.00 85 1011.6
20260509104548 55 104 0.0 0.0 0.00 0.00 0.00 86 1011.2
20260509103035 55 104 0.0 0.0 0.00 0.00 0.00 86 1010.8
20260509101537 56 104 0.0 0.0 0.00 0.00 0.00 86 1010.7
20260509100032 56 104 0.0 0.0 0.00 0.00 0.00 86 1010.7
20260509094533 56 104 0.0 0.0 0.00 0.00 0.00 86 1010.8
20260509093029 56 104 0.0 0.0 0.00 0.00 0.00 86 1010.8
20260509091530 57 104 0.0 0.0 0.00 0.00 0.00 86 1010.8
20260509090032 57 104 0.0 1.7 0.00 0.00 0.00 86 1011.0
20260509084522 58 104 0.0 0.0 0.00 0.00 0.00 86 1010.9
20260509083021 58 104 0.0 0.0 0.00 0.00 0.00 86 1010.7
20260509081525 59 104 0.0 0.0 0.00 0.00 0.00 86 1010.4
20260509080018 59 104 0.0 1.7 0.00 0.00 0.00 86 1010.7
20260509074516 59 101 0.0 0.0 0.00 0.00 0.00 86 1010.9
20260509073034 59 103 0.0 0.0 0.00 0.00 0.00 86 1011.1
20260509071516 59 103 0.0 0.9 0.00 0.00 0.00 86 1011.0
20260509070032 59 103 0.0 0.0 0.00 0.00 0.00 86 1011.0
20260509064512 59 103 0.0 3.5 0.00 0.00 0.00 86 1011.1
20260509063017 59 295 0.0 0.9 0.00 0.00 0.00 86 1011.1
20260509061509 58 292 0.0 0.9 0.00 0.00 0.00 86 1011.4
20260509060008 58 292 0.0 3.5 0.00 0.00 0.00 86 1011.5
20260509054506 59 161 0.0 0.0 0.00 0.00 0.00 86 1011.7
20260509053007 59 161 0.0 0.9 0.00 0.00 0.00 86 1011.9
20260509051601 60 161 0.0 0.0 0.00 0.00 0.00 85 1012.3
20260509050058 60 161 0.0 0.9 0.00 0.00 0.00 85 1012.8